Location: Roanoke
(37.2710°N, 79.9420°W)
Time: 03:24:52
(UTC-04:00)

Daily predictions for brighter satellites

Satellite Brightness Start Highest point End
(mag) Time Altitude Azimuth Time Altitude Azimuth Time Altitude Azimuth
NOSS 3-1 (A) 3.9 00:04:40 10° NW 00:12:26 84° WSW 00:12:56 79° S
Cosmos 1943 Rocket 3.4 00:21:41 34° NE 00:21:41 34° NE 00:24:52 10° NNE
Terra 3.9 00:23:26 20° WNW 00:23:26 20° WNW 00:26:01 10° NW
ATLAS 2AS CENTAUR R/B 3.3 00:25:35 10° NNW 00:33:33 57° NE 00:34:23 54° ENE
USA 234 3.8 00:36:38 10° NE 00:42:56 53° NW 00:45:22 35° W
Cosmos 2173 Rocket 4.5 00:58:53 56° NNE 00:58:53 56° NNE 01:03:51 10° N
ATLAS 3B CENTAUR R/B 4.4 01:24:02 53° SE 01:24:02 53° SE 01:45:53 10° E
CZ-2C R/B 3.8 01:33:51 10° N 01:37:09 40° N 01:37:09 40° N
CZ-3B DEB 4.5 01:06:05 10° NW 01:40:03 69° WSW 01:43:50 57° S
Cosmos 2227 Rocket 3.4 01:52:02 10° N 01:56:52 36° NE 01:56:52 36° NE
Cosmos 1943 Rocket 4.3 02:03:11 17° WNW 02:03:34 17° NW 02:07:14 10° NNW
Cosmos 2278 4.4 02:19:10 49° NNE 02:19:10 49° NNE 02:23:16 10° NNE
Cosmos 2297 Rocket 3.3 02:12:45 10° N 02:18:02 38° ENE 02:18:02 38° ENE
Cosmos 2233 Rocket 4.3 02:20:30 60° N 02:20:30 60° N 02:25:31 10° N
Cosmos 2369 4.4 02:22:00 49° NE 02:22:00 49° NE 02:26:07 10° NNE
ATLAS 2AS CENTAUR R/B 4.2 02:17:22 10° NW 02:21:47 27° W 02:21:47 27° W
Meteor 2-5 Rocket 4.4 02:29:45 10° N 02:35:22 50° ENE 02:35:22 50° ENE
Cosmos 1656 4.2 02:44:01 54° ENE 02:44:01 54° ENE 02:48:36 10° NNE
BREEZE-M DEB (TANK) 4.5 02:47:48 10° WNW 02:53:19 69° SW 03:20:06 10° SE
CZ-2D R/B 4.4 02:50:27 10° ENE 02:53:30 15° E 02:54:53 14° ESE
BREEZE-M DEB (TANK) 3.7 02:50:21 10° NW 02:58:46 53° NW 02:58:46 53° NW
ATLAS CENTAUR R/B 2.8 03:03:04 42° NNW 03:03:04 42° NNW 03:06:54 10° NNE
Meteor 1-24 Rocket 4.4 02:59:53 10° N 03:05:32 52° ENE 03:06:30 47° ESE
Cosmos 1814 Rocket 4.4 03:06:30 58° NNW 03:06:30 58° NNW 03:10:58 10° NNE
Cosmos 1891 Rocket 4.3 03:08:05 86° ENE 03:08:05 86° ENE 03:14:10 10° N
IRS-P3 4.3 03:03:25 10° NNE 03:08:06 68° N 03:08:06 68° N
SeaSat 1 3.4 03:11:46 39° NW 03:11:46 39° NW 03:14:53 10° NNW
ADEOS 4.2 03:06:30 10° NNE 03:11:27 48° E 03:11:27 48° E
IRAS Rocket 4.3 03:07:28 10° NNE 03:13:04 68° ESE 03:13:04 68° ESE
CBERS-1 4.2 03:11:12 10° NNE 03:15:48 71° NNE 03:15:48 71° NNE
Cosmos 1697 Rocket 2.6 03:21:51 79° NW 03:21:51 79° NW 03:27:21 10° NNE
Resurs 1-4 Rocket 3.5 03:18:10 10° NE 03:22:40 28° E 03:23:56 26° ESE
Cosmos 990 Rocket 4.0 03:18:19 10° NNW 03:23:20 77° NNE 03:23:20 77° NNE
Cosmos 2034 Rocket 3.9 03:25:17 70° W 03:25:29 71° W 03:31:41 10° N
BREEZE-M R/B 4.0 03:21:59 10° NW 03:28:25 86° SW 03:35:12 10° SE
SL-08 R/B 4.0 03:30:10 46° NNW 03:30:10 46° NNW 03:33:30 10° NNW
Nadezhda 4 Rocket 4.0 03:23:25 10° N 03:29:38 75° E 03:31:08 53° SSE
Cosmos 1980 Rocket 2.1 03:31:15 72° SE 03:31:33 74° ESE 03:37:12 10° NNE
Cosmos 1758 4.4 03:38:49 41° E 03:38:49 41° E 03:42:19 10° NNE
Cosmos 1953 3.2 03:41:06 45° E 03:41:06 45° E 03:44:46 10° NNE
Cosmos 2227 Rocket 3.8 03:36:23 10° NW 03:38:39 20° WNW 03:38:39 20° WNW
Cosmos 2322 Rocket 3.3 03:43:46 29° SE 03:45:31 35° ESE 03:50:34 10° NE
Meteor 2-12 Rocket 4.3 03:45:56 63° SW 03:46:43 71° W 03:52:48 10° N
NOSS 3-4 (A) 3.8 03:40:51 10° NW 03:47:48 60° WSW 03:49:39 47° SSW
NOSS 3-4 (C) 3.8 03:40:56 10° NW 03:47:55 60° WSW 03:49:53 46° S
NPP 4.3 03:44:24 10° N 03:49:26 41° WNW 03:49:32 41° WNW
SL-16 R/B 2.9 03:45:21 20° SSE 03:49:41 62° ENE 03:55:45 10° N
Cosmos 836 Rocket 4.3 03:53:04 70° WSW 03:53:28 74° WNW 03:58:44 10° NNE
Cosmos 841 Rocket 3.8 03:56:06 48° WNW 03:56:21 49° WNW 04:01:29 10° N
SL-24 R/B - RUBIN 2 4.4 03:56:07 51° S 03:57:28 68° ESE 04:03:43 10° NE
Cosmos 1763 Rocket 4.1 03:59:24 39° WNW 03:59:37 39° WNW 04:04:29 10° N
Cosmos 1378 4.4 03:57:32 10° NNW 03:59:52 34° NNW 03:59:52 34° NNW
Cosmos 2297 Rocket 3.7 03:57:12 10° NW 03:59:47 21° WNW 03:59:47 21° WNW
Cosmos 1076 Rocket 3.9 04:00:31 10° NNW 04:04:05 51° NW 04:04:05 51° NW
Geosat 4.3 04:00:46 10° NNE 04:05:39 52° WNW 04:06:24 48° W
Cosmos 1125 Rocket 3.5 04:01:02 10° NNW 04:06:15 80° ENE 04:09:11 26° SSE
GPS 2-04 Rocket1 4.0 04:09:35 30° SE 04:09:35 30° SE 04:11:46 10° ESE
Cosmos 1634 Rocket 3.9 04:06:30 41° S 04:08:53 86° W 04:15:13 10° N
DELTA 2 R/B (1) 3.8 04:12:49 46° S 04:13:51 53° SSE 04:19:16 10° ENE
CZ-3A R/B 4.0 04:07:23 27° WSW 04:14:31 60° NW 04:19:25 10° NE
ERS-2 3.7 04:13:50 10° NNW 04:16:21 26° NW 04:16:21 26° NW
Cosmos 540 Rocket 3.4 04:16:37 49° SSW 04:18:02 83° WNW 04:23:15 10° NNE
SL-16 R/B 2.4 04:18:32 34° S 04:21:01 69° ESE 04:26:41 10° NNE
Aureole 1 Rocket 4.1 04:19:01 33° S 04:22:02 81° ESE 04:29:42 10° NNE
Milstar 3 Cent rocket 2.9 04:21:57 33° S 04:22:15 34° S 04:28:28 10° ESE
Cosmos 1092 Rocket 4.1 04:16:31 10° NNW 04:22:40 56° W 04:25:11 35° SSW
Cosmos 1470 3.5 04:21:20 32° SSE 04:22:48 51° E 04:26:41 10° NNE
MOS 1-B 4.3 04:17:01 10° NNE 04:22:51 82° ESE 04:25:53 30° S
Cosmos 2360 4.4 04:23:34 40° WSW 04:25:22 56° WNW 04:31:00 10° NNE
Cosmos 1500 Rocket 3.8 04:21:01 10° N 04:25:23 66° E 04:28:12 21° SSE
RESURS DK-1 2.6 04:21:17 10° NNW 04:25:24 70° ENE 04:29:31 10° SSE
CZ-3 R/B 4.0 04:05:11 25° SW 04:27:43 53° S 04:37:26 10° E
ARIANE 5 R/B 2.9 04:23:05 10° N 04:28:04 50° WNW 04:29:32 38° WSW
Cosmos 2263 Rocket 4.0 04:25:12 10° N 04:30:11 32° ENE 04:35:06 10° ESE
Cosmos 1743 Rocket 3.4 04:27:17 10° NNW 04:31:37 69° W 04:33:03 40° SSW
Cosmos 1627 Rocket 4.4 04:25:35 10° N 04:31:52 77° W 04:36:33 18° S
SME Rocket 4.4 04:29:38 30° SSW 04:32:28 54° W 04:40:52 10° NNW
Cosmos-2242 3.6 04:33:18 36° W 04:33:36 37° W 04:37:37 10° N
CZ-2D R/B 2.2 04:28:36 10° N 04:33:58 61° WNW 04:36:13 34° SW
Cosmos 2221 4.2 04:31:15 10° SSE 04:34:59 30° E 04:38:45 10° NNE
Cosmos 1544 3.1 04:38:05 52° WSW 04:38:31 56° W 04:42:07 10° N
PSLV R/B 4.2 04:37:03 10° NNE 04:40:47 56° E 04:42:52 23° S
GEOS 3 Rocket 3.8 04:39:38 10° SE 04:44:50 72° NE 04:50:00 10° NNW
Cosmos 332 Rocket 4.2 04:43:36 33° WSW 04:45:14 45° WNW 04:49:54 10° N
CZ-4B R/B 3.8 04:40:47 10° NNE 04:46:11 55° E 04:51:26 10° S
Cosmos 1733 3.1 04:48:31 29° S 04:50:23 88° W 04:54:12 10° N
UNKNOWN OBJECT B 3.2 04:48:26 10° N 04:52:06 43° WNW 04:53:13 33° WSW
Okean O Rocket 1.6 04:49:16 10° NNE 04:53:41 84° E 04:56:55 18° S
Delta 2 Rocket 4.5 04:53:18 21° S 04:54:04 23° SSE 04:57:04 10° ESE
UNK 4.5 04:52:50 29° SW 04:54:06 33° W 04:58:21 10° NNW
Lacrosse 5 rocket 4.4 04:53:51 10° N 04:55:22 12° NNE 04:56:53 10° ENE
PAYLOAD B 4.4 04:53:40 10° NNE 04:59:18 78° ESE 05:04:49 10° S
Cosmos 2279 Rocket 4.1 04:55:03 20° SSW 04:59:26 58° W 05:05:36 10° N
EO 1 Del DPAF 4.1 04:59:47 28° WSW 05:00:26 30° W 05:03:53 10° NW
Thor Agena Rocket 4.1 04:56:09 10° SSE 05:01:05 59° ENE 05:06:02 10° N
Cosmos 1538 Rocket 4.0 04:57:49 21° SSW 05:01:26 77° WNW 05:06:48 10° NNE
Resurs 1-4 Rocket 3.0 04:57:51 10° N 05:02:27 32° WNW 05:05:01 21° WSW
Cosmos 371 Rocket 3.7 05:00:57 25° SW 05:03:25 45° WNW 05:08:02 10° N
Cosmos 1461 3.4 05:00:27 10° NW 05:04:07 33° WSW 05:06:56 14° S
ARGOS Delta rocket 4.0 05:00:13 10° NNE 05:05:13 77° E 05:09:54 10° S
CZ-2D R/B 4.0 05:01:58 10° N 05:06:09 45° WNW 05:08:45 21° SW
DELTA 2 R/B (2) 3.5 05:05:37 24° WNW 05:06:55 69° N 05:08:51 10° E
CZ-2C R/B 3.7 05:02:54 10° S 05:07:35 78° WSW 05:12:12 10° NNW
Cosmos 773 Rocket 4.1 05:07:40 11° SSW 05:12:33 79° ESE 05:17:45 10° NNE
CZ-4B R/B 2.6 05:09:18 10° NNE 05:13:09 90° W 05:16:30 12° SSW
ADEOS Rocket 4.4 05:08:26 10° NNE 05:14:57 46° E 05:22:02 10° S
Cosmos 2360 Rocket 2.3 05:10:31 10° SSW 05:16:01 77° ESE 05:21:40 10° NNE
Cosmos 1980 Rocket 4.1 05:13:01 11° W 05:16:09 16° NW 05:19:31 10° NNW
Cosmos 1328 3.7 05:14:07 10° NNW 05:18:09 69° W 05:22:08 10° S
Cosmos 1674 3.5 05:15:45 10° NNW 05:19:04 31° W 05:21:25 16° SW
OTV 4 3.1 05:20:17 10° SSE 05:20:49 10° SSE 05:21:23 10° SE
GRACE-1 3.9 05:19:35 12° S 05:22:10 65° W 05:25:02 10° N
GRACE-2 3.9 05:19:58 12° S 05:22:35 65° W 05:25:28 10° N
Meteor 2-20 Rocket 4.4 05:17:18 10° N 05:23:25 87° W 05:29:31 10° S
Cosmos 1805 Rocket 3.6 05:22:31 10° N 05:26:54 84° E 05:31:16 10° S
Cosmos 2266 Rocket 4.0 05:21:59 10° N 05:28:12 89° W 05:34:29 10° S
Cosmos 2322 Rocket 3.3 05:25:36 14° WSW 05:29:33 29° WNW 05:34:25 10° N
Cosmos 1346 3.0 05:27:32 10° N 05:30:35 87° E 05:33:35 10° S
Cosmos 2151 3.4 05:27:36 10° NNW 05:31:41 43° W 05:35:45 10° SSW
CZ-4B DEB 4.3 05:27:20 10° N 05:32:47 61° WNW 05:38:11 10° SSW
SL-16 R/B 3.9 05:30:27 13° SW 05:33:42 18° W 05:37:48 10° NW
Sich 1 3.5 05:31:41 10° N 05:36:00 65° E 05:40:19 10° SSE
Meteor 1-11 4.2 05:34:58 10° NNW 05:40:34 69° W 05:46:12 10° S
CZ-3 Stage 3 4.0 05:15:35 10° W 05:43:26 47° SSW 05:48:59 10° SE
Meteor 2-1 Rocket 4.3 05:38:28 10° SSW 05:44:02 64° W 05:49:35 10° N
Okean-O 2.6 05:40:05 10° N 05:44:32 83° WNW 05:48:58 10° SSW
USA 116 3.5 05:42:14 10° SSE 05:45:25 76° ENE 05:48:57 10° N
Cosmos 1703 3.8 05:43:05 10° N 05:47:04 64° E 05:50:59 10° SSE
GPS 2-04 Rocket1 4.1 05:44:26 10° WSW 05:47:21 19° SSW 05:50:09 10° SSE
Cosmos 1437 Rocket 3.2 05:46:09 10° S 05:49:55 65° E 05:53:46 10° NNE
Cosmos 1328 Rocket 4.0 05:47:29 10° S 05:51:54 69° E 05:56:19 10° NNE
Lacrosse 4 Rocket 4.0 05:49:28 10° SSE 05:52:31 20° ESE 05:55:38 10° ENE
Cosmos 1666 Rocket 3.6 05:51:01 10° NNW 05:55:21 63° W 05:59:38 10° S
Cosmos 2219 Rocket 3.7 05:50:22 10° S 05:55:24 36° ESE 06:00:27 10° NE
DELTA 2 R/B (1) 3.8 05:54:40 10° W 06:00:15 76° N 06:05:52 10° ENE
Feng Yun 1-1 Rocket 4.3 05:57:13 10° N 06:02:45 69° WNW 06:08:07 10° SSW
